Zurück zum Katalog

COSMOS 2251 DEB

LostLEO
NORAD 37278·DEBRIS·🇷🇺 Russia

Gestartet Jun 16, 1993 von Plesetsk Cosmodrome

Loading…

Nächste Überflüge (nächste 24 Stunden)

TLE

VeraltetSource: Space-Track

Epoche: Jul 20, 2026, 15:37 UTC

1 37278U 93036BHS 26201.65097400  .00002001  00000-0  66864-3 0  9996
2 37278  73.7857 312.1101 0295524  96.4926 329.5834 14.16192457669418

Verfolge COSMOS 2251 DEB in Echtzeit mit AllMySat

Download on the App Store